Theta_e
346 343 341 339 337 338 334 335 337 335 335 336 333 333 334 339 339 336 338 339 340 339 339 340 340 338 340 338 340 344 344 342 342 342 340 342 342 343 345 344 343 344
343 349 348 343 344 345 344 337 334 333 332 334 337 335 337 337 338 337 337 337 338 338 338 337 339 339 338 339 340 339 338 337 336 345 340 338 337 338 338 339 339 340
336 335 337 339 339 340 338 339 340 337 337 340 339 336 337 341 338 339 339 337 338 336 337 338 338 340 341 340 339 338 337 336 335 337 342 340 339 338 337 338 337 337
339 337 335 337 338 338 341 337 336 337 340 333 335 337 339 340 336 336 339 348 336 337 339 338 339 340 340 340 338 337 337 336 337 336 336 337 338 339 337 337 342 340
338 338 338 337 340 342 338 337 339 337 335 332 335 340 341 336 335 335 336 337 338 337 338 338 336 337 339 337 337 335 339 339 338 336 335 335 337 339 339 339 337 336
339 337 339 336 339 336 334 336 335 337 337 333 334 341 335 336 335 336 337 335 336 336 336 336 336 337 337 337 337 336 337 338 337 334 334 334 336 337 339 338 336 335
335 334 335 340 339 339 338 337 336 344 333 335 337 337 337 333 335 335 336 337 337 341 337 335 334 336 336 338 336 335 334 335 335 334 333 334 336 335 336 336 337 335
335 338 338 338 339 338 340 338 336 333 336 338 334 335 336 337 337 339 339 337 336 336 336 335 335 334 336 338 335 334 334 339 337 333 332 332 332 332 334 336 336 335
339 339 338 339 337 338 338 338 336 336 342 336 335 334 339 338 339 339 339 338 337 337 336 336 336 336 337 336 335 334 333 335 337 334 332 333 333 332 333 334 334 335
338 338 340 338 338 338 338 337 340 337 342 337 338 338 339 342 340 339 339 337 337 337 336 335 335 335 335 335 335 334 334 334 333 333 333 333 333 333 333 332 333 332
337 338 339 338 339 339 339 339 339 339 342 339 339 338 339 338 339 340 337 336 338 336 335 334 335 335 335 335 335 336 335 334 333 332 333 333 333 333 340 335 333 331
340 340 338 338 340 341 341 340 341 339 338 340 340 336 336 337 336 335 339 337 336 336 335 335 335 335 335 334 335 335 335 335 334 334 334 334 333 334 335 334 331 328
340 340 339 338 340 340 341 340 339 340 338 337 340 338 336 336 336 335 337 337 337 337 337 337 337 336 335 335 335 334 334 334 334 333 334 334 335 336 335 331 329 329
339 339 340 341 342 341 340 340 339 338 338 338 341 337 336 336 336 337 337 337 337 336 336 337 336 336 336 335 335 335 334 334 333 334 334 334 335 335 333 331 329 329
340 342 340 343 342 339 338 338 339 338 338 337 338 338 342 339 338 338 337 337 337 336 336 337 337 337 337 337 336 335 335 334 333 333 334 334 333 332 331 330 330 330
341 342 341 339 337 338 338 338 337 337 338 337 337 337 336 339 337 338 337 337 336 336 336 337 338 338 345 348 344 341 337 335 334 335 335 334 334 331 330 329 329 329
340 340 340 339 338 337 338 337 337 337 337 336 336 336 336 336 339 334 334 335 334 334 333 335 336 338 344 338 339 338 335 332 332 332 333 332 331 329 328 329 329 329
339 339 339 339 338 337 337 337 338 337 336 335 335 335 336 336 334 334 334 334 335 334 333 334 335 342 334 337 337 337 336 335 330 329 331 329 328 328 328 328 328 328
339 339 338 339 340 340 339 339 337 336 335 335 335 336 337 333 333 333 334 333 333 331 331 331 329 341 332 335 335 334 335 335 329 328 329 329 328 328 327 327 327 329
339 338 338 338 339 339 338 337 336 335 335 334 337 335 332 332 332 331 331 329 330 329 327 328 328 338 335 334 334 333 332 335 330 329 328 328 328 328 328 328 328 328
340 339 338 338 338 338 337 336 335 335 334 334 335 333 332 330 329 327 328 332 327 327 326 329 329 334 332 334 332 330 330 336 330 330 329 328 328 328 328 328 328 328
339 338 339 338 339 338 336 335 334 333 333 334 334 329 328 328 327 327 327 326 326 326 326 326 327 330 330 331 330 328 333 333 328 328 327 328 328 328 328 328 328 328
338 338 338 337 338 336 333 333 332 332 331 335 327 325 326 326 326 327 327 326 327 328 326 325 326 329 328 328 328 328 332 327 325 327 327 326 326 327 327 328 328 329
338 338 337 338 335 334 333 332 332 331 329 333 327 325 325 326 325 325 325 326 327 327 327 326 328 331 327 326 326 327 333 328 326 326 325 325 325 326 327 327 328 334
338 338 336 335 334 332 332 330 330 327 329 330 327 326 327 326 328 326 324 325 325 326 335 333 328 330 327 326 325 326 329 325 325 323 323 323 323 324 325 326 326 331
340 339 336 333 331 330 330 329 329 330 325 325 325 324 324 325 324 326 324 325 326 325 327 326 325 326 329 326 324 325 327 327 325 321 322 323 323 323 324 324 324 324
Wind_Speed
2 2 3 4 3 2 3 1 0 1 1 1 2 2 3 3 4 4 3 3 3 3 2 3 3 4 4 3 3 1 1 2 3 3 4 4 3 2 3 3 3 4
3 4 2 1 2 2 0 1 1 0 2 3 3 3 1 2 2 3 3 3 3 2 2 4 4 4 4 3 2 2 2 2 3 1 3 3 3 2 3 3 4 4
4 4 3 1 1 0 1 0 1 2 1 3 3 4 3 1 2 2 2 2 3 4 4 3 4 2 2 2 1 2 2 3 3 3 2 3 3 3 3 3 3 3
2 3 3 3 2 2 0 1 3 4 1 3 2 2 2 1 2 1 1 2 3 3 2 3 1 0 0 1 2 3 3 3 3 2 3 3 3 3 4 3 3 4
4 3 3 2 1 1 2 2 3 3 1 2 1 2 3 1 1 1 1 3 3 3 2 0 1 2 1 0 0 1 1 2 3 3 3 4 4 3 3 3 3 4
3 4 3 2 1 0 0 2 2 1 1 1 3 1 1 2 4 3 1 3 2 3 1 2 3 1 0 1 1 0 1 2 3 2 2 3 4 4 3 4 3 4
4 4 2 1 0 1 2 3 3 0 3 3 2 2 1 3 4 4 4 3 2 0 1 3 3 3 2 2 2 2 1 1 2 1 2 3 3 4 3 3 3 3
4 3 3 1 1 1 2 2 3 0 1 1 2 2 0 3 3 2 2 1 0 1 2 3 4 4 3 2 3 3 3 2 2 2 2 3 3 4 4 4 3 3
4 4 3 3 2 0 0 1 1 2 0 0 2 3 2 3 3 2 1 1 2 2 2 3 3 3 3 2 3 4 4 3 3 3 3 4 3 4 4 3 3 2
5 4 4 3 1 1 2 1 0 2 2 3 2 3 3 1 0 0 1 2 2 2 2 2 3 3 2 2 4 4 4 4 4 4 4 4 4 4 4 3 2 1
3 3 3 3 2 0 1 1 1 1 3 3 2 2 0 0 1 2 2 3 3 3 4 3 3 3 3 3 3 3 4 4 5 5 5 5 5 5 4 3 3 2
3 4 4 2 0 0 1 2 1 1 1 1 0 1 2 2 2 3 3 4 4 4 4 4 4 4 4 4 4 4 4 4 5 5 6 5 5 5 5 5 3 3
4 4 4 3 1 2 2 2 1 0 0 1 1 1 2 3 3 3 3 3 4 3 4 4 4 4 5 5 5 5 5 5 5 5 5 5 5 6 5 4 3 3
5 4 3 2 3 2 1 0 1 2 2 2 2 3 3 3 3 4 4 3 4 4 4 4 4 4 5 5 6 6 5 6 6 5 5 5 6 5 4 4 4 4
4 3 3 3 2 2 0 1 1 2 2 3 2 3 2 3 3 3 4 5 5 4 5 4 4 5 5 5 5 5 4 6 6 6 5 5 5 5 5 5 4 4
4 4 4 4 3 1 1 1 2 3 3 3 3 3 3 3 3 3 3 3 4 5 4 4 4 4 6 10 7 3 3 3 4 5 5 4 4 4 4 4 5 5
5 4 4 4 3 2 1 2 3 2 2 2 2 2 3 3 2 3 3 3 4 4 4 4 4 4 8 5 4 8 5 3 3 4 4 4 4 4 5 5 5 5
5 4 4 3 3 3 3 2 2 1 2 2 3 3 3 3 4 4 4 5 5 5 4 5 4 6 3 3 5 6 7 4 3 3 4 4 4 5 5 5 5 5
4 4 4 3 3 3 2 1 0 1 2 2 2 2 2 3 4 4 4 4 4 4 4 3 3 3 4 6 6 7 8 7 4 3 4 5 5 5 5 6 6 6
4 4 4 4 3 1 1 0 0 0 1 1 1 2 3 3 3 3 3 3 3 3 3 3 3 5 7 8 8 8 8 7 4 4 4 5 5 6 5 6 6 6
3 4 4 3 1 0 0 0 1 0 1 1 1 1 1 2 3 3 3 2 3 3 3 4 4 8 9 9 9 8 8 7 4 4 4 5 5 5 6 6 6 6
4 3 2 4 1 1 2 2 1 1 1 1 1 1 1 1 2 2 3 3 4 3 3 4 5 9 10 9 8 8 8 4 4 4 5 5 6 5 5 6 6 6
8 3 3 4 2 2 3 2 1 1 1 0 1 1 2 3 3 4 3 4 4 4 4 5 5 8 10 9 8 9 6 5 3 4 5 5 6 5 6 6 6 5
1 5 1 3 3 3 2 1 1 1 1 1 2 3 4 4 4 4 4 4 4 5 5 4 5 7 10 9 8 8 7 4 4 5 5 5 6 6 6 6 6 12
6 5 3 3 4 2 2 2 2 2 2 1 2 2 3 4 3 4 4 5 4 4 7 5 4 6 8 7 6 6 4 3 3 4 4 6 5 6 6 6 6 7
3 3 4 4 3 1 2 3 3 1 3 3 4 3 4 4 4 4 4 5 4 3 4 3 3 4 4 6 5 5 4 2 3 2 4 4 5 5 6 6 6 6
Wind_Direction
225 157 195 169 187 146 118 128 209 58 348 255 252 6 16 70 88 85 108 104 104 103 105 84 61 50 43 48 22 3 339 310 331 323 315 314 292 289 292 289 267 234
196 170 158 102 74 37 83 189 160 163 313 338 351 123 96 104 71 101 105 100 89 109 81 67 70 74 67 56 30 44 14 4 357 332 331 320 290 283 274 273 275 286
127 84 83 99 118 248 233 310 39 302 9 331 49 104 129 126 94 64 104 99 77 54 50 72 69 69 77 43 35 25 353 344 333 332 333 312 298 298 289 282 280 276
116 134 128 141 153 175 190 12 356 324 33 75 67 123 131 114 98 62 39 86 68 57 68 61 72 37 15 17 13 351 328 319 308 322 330 314 306 289 288 286 290 302
143 136 136 131 165 51 25 2 322 11 82 150 195 135 110 137 95 22 311 40 83 117 113 153 264 228 214 29 101 356 329 334 319 345 348 330 317 327 312 323 317 312
152 144 153 135 116 128 10 346 2 321 305 156 187 157 147 95 69 55 48 117 119 124 174 241 236 274 327 298 295 239 258 322 307 358 355 330 319 328 332 332 340 341
151 130 113 149 17 46 30 347 315 25 130 195 148 155 197 84 119 113 110 132 150 214 227 256 289 279 279 253 242 252 272 263 289 334 335 312 318 322 326 324 337 334
156 139 150 125 101 45 56 336 328 343 184 142 138 227 102 121 129 139 136 152 184 275 284 303 292 271 256 211 234 237 265 255 238 254 277 286 299 303 305 306 321 334
139 156 163 142 123 280 5 261 308 306 305 93 359 4 60 133 157 143 196 221 238 255 276 289 276 287 302 251 250 237 242 251 244 238 258 268 281 283 282 297 322 319
152 162 154 150 167 238 251 316 318 185 142 108 104 86 61 20 140 200 229 215 236 264 261 263 293 291 292 268 258 259 257 257 258 256 256 257 253 262 279 286 259 289
137 138 147 166 181 268 343 309 62 50 74 96 89 61 27 2 314 301 303 319 301 300 298 294 285 270 269 279 273 261 259 267 272 273 271 266 258 253 257 225 226 246
148 146 171 191 184 12 92 79 114 77 59 5 61 15 331 327 318 313 309 309 313 305 307 297 295 289 282 275 276 273 270 268 267 269 271 267 265 259 240 217 222 238
165 170 188 184 157 148 169 155 134 166 80 312 234 260 294 308 307 315 304 302 294 294 288 284 283 285 282 277 272 269 266 269 269 268 270 270 260 250 235 226 228 238
182 190 181 169 159 160 153 74 7 344 314 302 322 319 305 293 295 292 287 291 282 282 279 281 285 288 284 278 271 267 272 270 262 262 264 262 259 250 239 231 232 237
182 166 164 146 144 139 77 354 313 295 299 303 308 302 292 281 281 292 305 309 308 306 304 298 291 279 276 271 279 294 275 271 274 267 258 254 249 247 245 243 247 248
176 162 153 147 140 163 205 239 282 298 303 304 299 291 288 300 312 316 314 297 297 299 296 300 292 290 283 308 334 315 291 294 292 288 280 267 260 257 264 263 256 254
169 165 157 162 181 184 222 263 274 285 295 295 308 320 320 310 325 330 317 309 308 306 310 307 302 296 352 3 358 4 4 341 332 314 305 290 275 261 261 263 261 255
171 169 164 179 170 193 216 233 253 312 333 346 347 342 328 348 348 330 328 326 323 322 321 319 319 357 360 345 353 326 333 316 281 281 283 277 267 260 259 262 264 267
167 166 177 179 190 193 206 228 337 349 351 351 317 286 335 350 331 340 323 324 335 337 333 329 332 309 328 326 317 322 309 313 290 271 271 278 279 277 275 275 276 277
167 167 177 186 173 181 194 217 69 247 249 254 300 3 7 346 338 328 327 333 332 323 309 301 302 291 302 307 313 310 303 294 274 273 268 266 270 271 272 271 270 271
157 169 176 163 116 284 128 124 156 251 3 3 41 1 338 309 309 324 309 300 293 282 284 296 283 292 298 301 309 310 307 301 286 285 282 277 275 274 272 273 273 275
147 169 146 90 89 189 113 104 96 81 66 38 56 349 318 322 305 272 260 270 270 270 281 289 291 293 294 297 305 309 309 307 297 286 280 280 280 280 280 278 278 277
346 313 130 109 219 132 110 107 91 60 36 173 328 297 280 278 257 254 254 265 275 277 281 286 289 293 301 306 308 308 312 298 288 283 279 279 279 280 281 280 278 273
194 283 278 153 135 114 120 94 117 173 229 224 227 264 274 258 253 263 271 264 268 283 278 281 291 304 313 314 310 304 303 288 277 278 284 283 283 284 282 279 276 279
176 197 185 129 107 133 145 150 176 195 232 234 252 250 261 268 273 266 277 283 275 272 294 306 305 302 301 307 305 299 293 280 280 281 286 281 277 280 276 271 272 272
165 159 125 120 133 140 170 188 204 202 245 249 263 247 264 272 271 271 271 278 293 319 305 290 279 282 281 295 284 278 277 252 233 247 261 271 276 273 282 279 272 271